Flag for Germany Weather past 2 weeks in Erkelenz, North Rhine-Westphalia, Germany

Now
63 °F

Light rain. Partly sunny.


Feels Like: 63 °F
Forecast: 54 / 62 °F
Wind: 9 mph from Southwest

Location: Monchengladbach Airport

Current Time: Aug 30, 2014 at 12:28:40 PM

Latest Report: Aug 30, 2014 at 11:50 AM


Visibility: N/A

Pressure: 30.01 "Hg

Humidity: 83%

Dew point: 57 °F

Location of ErkelenzLocation

Historic Weather in Erkelenz — Graph

°F

Erkelenz temperature yesterday

Maximum temperature yesterday: 68 °F (at 5:50 PM)
Minimum temperature yesterday: 61 °F (at 7:50 AM)
Average temperature yesterday: 64 °F

Past Weeks' High & Low Weather Summary

 TemperatureHumidityPressure
High73 °F (Aug 28, 1:50 PM)100% (Aug 16, 7:50 AM)30.09 "Hg (Aug 16, 7:50 AM)
Low48 °F (Aug 21, 7:50 AM)43% (Aug 27, 2:20 PM)29.62 "Hg (Aug 26, 7:50 AM)
Average61 °F74%29.93 "Hg
* Reported Aug 15 11:20 AM — Aug 30 11:20 AM, Erkelenz, Weather by CustomWeather, © 2014

Note: Actual official high and low records may vary slightly from our data, if they occured in-between our weather recording intervals... More about our weather records

Advertising

Erkelenz weather history for previous 24 hours

 ConditionsComfort  
Time TempWeatherWind HumidityBarometerVisibility
11:20 AM
Aug 30
63 °FBroken clouds.10 mph83%30.01 "HgN/A
10:50 AM63 °FPartly sunny.9 mph83%30.01 "HgN/A
10:20 AM63 °FPartly sunny.9 mph83%30.01 "HgN/A
9:50 AM63 °FPartly sunny.7 mph77%30.01 "HgN/A
9:20 AM61 °FPartly sunny.8 mph83%30.01 "HgN/A
8:50 AM61 °FScattered clouds.7 mph83%30.01 "HgN/A
8:20 AM61 °FScattered clouds.6 mph83%30.01 "HgN/A
7:50 AM61 °FScattered clouds.5 mph83%30.01 "HgN/A
8:20 PM
Aug 29
63 °FClear.2 mph77%29.98 "Hg10 mi
7:50 PM64 °FClear.3 mph73%29.98 "Hg10 mi
7:20 PM66 °FPassing clouds.5 mph68%29.98 "HgN/A
6:50 PM66 °FPassing clouds.6 mph68%29.98 "HgN/A
6:20 PM66 °FPassing clouds.6 mph68%29.98 "HgN/A
5:50 PM68 °FPassing clouds.7 mph64%29.98 "HgN/A
5:20 PM66 °FPassing clouds.7 mph68%30.01 "HgN/A
4:50 PM66 °FPassing clouds.9 mph68%30.01 "HgN/A
4:20 PM64 °FPassing clouds.7 mph73%30.01 "HgN/A
3:50 PM64 °FPassing clouds.8 mph68%30.01 "HgN/A
3:20 PM66 °FClear.7 mph73%30.01 "Hg10 mi
2:50 PM64 °FPassing clouds.7 mph73%30.01 "HgN/A
2:20 PM63 °FLight rain. Passing clouds.7 mph83%30.01 "HgN/A
1:50 PM63 °FPassing clouds.8 mph83%30.01 "HgN/A
1:20 PM63 °FPassing clouds.7 mph83%30.01 "HgN/A
12:50 PM61 °FPartly cloudy.6 mph94%30.01 "HgN/A
12:20 PM64 °FLight rain. Broken clouds.7 mph78%30.01 "Hg5 mi
Weather by CustomWeather, © 2014

See weather overviewHow to use our weather pages